CAPE
2 4 3 1 0 0 0 0 0 0 0 0 0 0 0 0 0 0 0 0 0 0 0 0 0 0 0 0 0 0 0 0 0 0 0 0 0 0 0 0 0 0 0 0
0 0 3 1 0 0 0 0 0 0 0 0 0 0 0 0 0 0 0 0 0 0 0 0 0 0 0 0 0 0 0 0 0 0 0 0 0 0 0 0 0 0 0 0
0 0 2 4 0 0 0 0 0 0 0 0 0 0 0 0 0 0 0 0 0 0 0 0 0 0 0 0 0 0 0 0 0 0 0 0 0 0 0 0 0 0 0 0
0 0 0 0 0 0 0 0 0 0 0 0 0 0 0 0 0 0 0 0 0 0 0 0 0 0 0 0 0 0 0 0 0 0 0 0 0 0 0 0 0 0 0 0
0 0 0 0 0 0 0 0 0 0 0 0 0 0 0 0 0 0 0 0 0 0 0 0 0 0 0 0 0 0 0 0 0 0 0 0 0 0 0 0 0 0 0 0
0 0 0 0 0 0 0 0 0 0 0 0 0 0 0 0 0 0 0 0 0 0 0 0 0 0 0 0 0 0 0 0 0 0 0 0 0 0 0 0 0 0 0 0
0 0 0 0 0 0 0 0 0 0 0 0 0 0 0 0 0 0 0 0 0 0 0 0 0 0 0 0 0 0 0 0 0 0 0 0 0 0 0 0 0 0 0 0
1 0 0 0 5 0 0 0 0 0 0 0 0 0 0 0 0 0 0 0 0 0 0 0 0 0 0 0 0 0 1 0 0 0 1 1 0 0 0 0 0 3 0 0
1 0 2 0 0 0 0 0 0 0 0 0 0 0 0 0 0 0 0 0 0 0 0 0 0 0 2 3 1 1 0 0 0 0 1 0 0 0 0 0 0 2 0 0
0 2 5 0 0 0 0 0 0 0 0 0 0 0 0 0 0 0 0 0 0 0 0 3 3 4 6 5 4 0 0 1 1 0 0 0 0 0 0 0 1 2 0 0
0 0 0 0 0 0 0 0 0 0 0 0 0 0 0 0 0 0 0 0 0 0 1 2 3 5 11 6 2 0 0 1 0 0 0 0 0 0 0 0 0 0 0 0
0 0 0 0 0 0 0 0 0 0 0 0 0 0 0 0 0 0 0 0 0 0 0 1 3 4 7 7 2 1 0 0 0 0 0 0 0 0 0 0 0 0 0 0
0 0 0 0 0 0 0 0 0 0 0 0 0 0 0 0 0 0 0 0 0 0 0 0 0 0 0 0 0 0 0 0 0 0 0 0 0 0 0 0 0 0 0 0
0 0 0 0 0 0 0 0 0 0 0 0 0 0 0 0 0 0 0 0 0 0 0 0 0 0 0 0 0 0 0 0 0 0 0 0 0 0 0 0 0 0 0 0
0 0 0 0 0 0 0 0 0 0 0 0 0 0 0 0 0 0 0 0 0 0 0 0 0 0 0 0 0 0 0 0 0 0 0 0 0 0 0 0 0 0 0 0
0 0 0 0 0 0 0 0 0 0 0 0 0 0 0 0 0 0 1 1 0 0 0 0 0 0 0 0 0 0 0 0 0 0 0 0 0 0 0 0 0 0 0 0
0 0 0 0 0 0 0 0 0 0 1 0 0 0 0 0 0 0 0 0 0 0 0 0 0 0 0 0 0 0 0 0 0 0 0 0 0 0 0 0 0 0 0 0
0 0 0 0 0 0 0 0 0 0 0 0 0 0 0 0 0 0 0 0 0 0 0 0 0 0 0 0 0 0 0 0 0 0 0 0 0 0 0 0 0 0 0 0
0 0 0 0 0 0 0 1 0 0 0 0 0 0 0 0 0 0 0 0 0 0 0 0 0 0 0 0 0 0 0 0 0 0 0 0 0 0 0 0 0 0 0 0
0 0 0 0 0 0 0 0 0 0 0 0 0 0 0 0 0 0 0 0 0 0 0 0 0 0 0 0 0 0 0 0 0 0 0 0 0 0 0 0 0 0 0 0
0 0 0 0 0 0 0 0 0 0 0 0 0 0 0 0 0 0 0 0 0 0 0 0 0 0 0 0 0 0 0 0 0 0 0 0 0 0 0 0 0 0 0 0
0 0 0 0 0 0 0 0 0 0 0 0 0 0 0 0 0 0 0 0 0 0 0 0 0 0 0 0 0 0 0 0 0 0 0 0 0 0 0 0 0 0 0 0
0 0 0 0 0 0 0 0 0 0 0 1 0 0 0 0 0 0 0 0 0 0 0 0 0 0 0 0 0 0 0 0 0 0 0 0 0 0 0 0 0 0 0 0
0 0 0 0 0 0 0 0 0 0 0 0 0 0 0 0 0 0 0 0 0 1 1 0 0 0 0 0 0 0 0 0 0 0 0 0 0 0 0 0 0 0 0 0
0 0 0 0 0 0 0 0 0 0 0 0 0 0 0 0 0 0 0 0 0 0 0 0 0 0 0 0 0 0 0 0 0 0 0 0 0 0 0 0 0 0 0 0
0 0 0 0 0 0 0 0 0 0 0 0 0 0 0 0 0 0 0 0 0 0 0 0 0 0 0 0 0 0 0 0 0 0 0 0 0 0 0 0 0 0 0 0
0 0 0 0 0 0 0 0 0 0 0 0 0 0 0 0 0 0 0 0 0 0 0 0 0 0 0 0 0 0 0 0 0 0 0 0 0 0 0 0 0 0 0 0
CIN
-0 -0 -0 -0 -0 -0 -0 -0 -0 -0 -0 -0 -0 -0 -0 -0 -0 -0 -0 -0 -0 -0 -0 -0 -0 -0 -0 -0 -0 -0 -0 -0 -0 -0 -0 -0 -0 -0 -0 -0 -0 -0 -0 -0
-0 -0 -0 -0 -0 -0 -0 -0 -0 -0 -0 -0 -0 -0 -0 -0 -0 -0 -0 -0 -0 -0 -0 -0 -0 -0 -0 -0 -0 -0 -0 -0 -0 -0 -0 -0 -0 -0 -0 -0 -0 -0 -0 -0
-0 -0 -0 -0 -0 -0 -0 -0 -0 -0 -0 -0 -0 -0 -0 -0 -0 -0 -0 -0 -0 -0 -0 -0 -0 -0 -0 -0 -0 -0 -0 -0 -0 -0 -0 -0 -0 -0 -0 -0 -0 -0 -0 -0
-0 -0 -0 -0 -0 -0 -0 -0 -0 -0 -0 -0 -0 -0 -0 -0 -0 -0 -0 -0 -0 -0 -0 -0 -0 -0 -0 -0 -0 -0 -0 -0 -0 -0 -0 -0 -0 -0 -0 -0 -0 -0 -0 -0
-1 -0 -0 -0 -0 -0 -0 -0 -0 -0 -0 -0 -0 -0 -0 -0 -0 -0 -0 -0 -0 -0 -0 -0 -0 -0 -0 -0 -0 -0 -0 -0 -0 -0 -0 -0 -0 -0 -0 -0 -0 -0 -0 -0
-0 -0 -0 -0 -0 -0 -0 -0 -0 -0 -0 -0 -0 -0 -0 -0 -0 -0 -0 -0 -0 -0 -0 -0 -0 -0 -0 -0 -0 -0 -0 -0 -0 -0 -0 -0 -0 -0 -0 -0 -0 -0 -0 -0
-0 -0 -0 -0 -0 -0 -0 -0 -0 -0 -0 -0 -0 -0 -0 -0 -0 -0 -0 -0 -0 -0 -0 -0 -0 -0 -0 -0 -0 -0 -0 -0 -0 -0 -0 -0 -0 -0 -0 -0 -0 -0 -0 -0
-3 -0 -0 -0 -41 -0 -0 -0 -0 -0 -0 -0 -0 -0 -0 -0 -0 -0 -0 -0 -0 -0 -0 -0 -0 -0 -0 -0 -0 -0 -0 -0 -0 -0 -0 -0 -0 -0 -0 -0 -0 -0 -0 -0
-1 -0 -0 -0 -0 -0 -0 -0 -0 -0 -0 -0 -0 -0 -0 -0 -0 -0 -0 -0 -0 -0 -0 -0 -0 -0 -0 -0 -0 -0 -0 -0 -0 -0 -0 -0 -0 -0 -0 -0 -0 -0 -0 -0
-0 -0 -18 -2 -0 -0 -0 -0 -0 -0 -0 -0 -0 -0 -0 -0 -0 -0 -0 -0 -0 -0 -0 -0 -0 -0 -0 -0 -0 -0 -0 -0 -0 -0 -0 -0 -0 -0 -0 -0 -0 -0 -0 -0
-0 -0 -0 -0 -0 -0 -0 -0 -0 -0 -0 -0 -0 -0 -0 -0 -0 -0 -0 -0 -0 -0 -0 -0 -0 -0 -0 -0 -0 -0 -0 -0 -0 -0 -0 -0 -0 -0 -0 -0 -0 -0 -0 -0
-0 -0 -0 -0 -0 -0 -0 -0 -0 -0 -0 -0 -0 -0 -0 -0 -0 -0 -0 -0 -0 -0 -0 -0 -0 -0 -0 -0 -0 -0 -0 -0 -0 -0 -0 -0 -0 -0 -0 -0 -0 -0 -0 -0
-0 -0 -0 -0 -0 -0 -0 -0 -0 -0 -0 -0 -0 -0 -0 -0 -0 -0 -0 -0 -0 -0 -0 -0 -0 -0 -0 -0 -0 -0 -0 -0 -0 -0 -0 -0 -0 -0 -0 -0 -0 -0 -0 -0
-0 -0 -0 -0 -0 -0 -0 -0 -0 -0 -0 -0 -0 -0 -0 -0 -0 -0 -0 -0 -0 -0 -0 -0 -0 -0 -0 -0 -0 -0 -0 -0 -0 -0 -0 -0 -0 -0 -0 -0 -0 -0 -0 -0
-0 -0 -0 -0 -0 -0 -0 -0 -0 -0 -0 -0 -0 -0 -0 -0 -0 -0 -0 -0 -0 -0 -0 -0 -0 -0 -0 -0 -0 -0 -0 -0 -0 -0 -0 -0 -0 -0 -0 -0 -0 -0 -0 -0
-0 -0 -0 -0 -0 -0 -0 -0 -0 -0 -0 -0 -0 -0 -0 -0 -0 -0 -0 -0 -0 -0 -0 -0 -0 -0 -0 -0 -0 -0 -0 -0 -0 -0 -0 -0 -0 -0 -0 -0 -0 -0 -0 -0
-0 -0 -0 -0 -0 -0 -0 -0 -0 -0 -0 -0 -0 -0 -0 -0 -0 -0 -0 -0 -0 -0 -0 -0 -0 -0 -0 -0 -0 -0 -0 -0 -0 -0 -0 -0 -0 -0 -0 -0 -0 -0 -0 -0
-0 -9 -0 -0 -0 -0 -0 -0 -0 -0 -0 -0 -0 -0 -0 -0 -0 -0 -0 -0 -0 -0 -0 -0 -0 -0 -0 -0 -0 -0 -0 -0 -0 -0 -0 -0 -0 -0 -0 -0 -0 -0 -0 -0
-1 -0 -0 -0 -0 -0 -0 -0 -0 -0 -0 -0 -0 -0 -0 -0 -0 -0 -0 -0 -0 -0 -0 -0 -0 -0 -0 -0 -0 -0 -0 -0 -0 -0 -0 -0 -0 -0 -0 -0 -0 -0 -0 -0
-0 -0 -0 -0 -0 -0 -0 -0 -0 -0 -0 -0 -0 -0 -0 -0 -0 -0 -0 -0 -0 -0 -0 -0 -0 -0 -0 -0 -0 -0 -0 -0 -0 -0 -0 -0 -0 -0 -0 -0 -0 -0 -0 -0
-0 -0 -0 -0 -0 -0 -0 -0 -0 -0 -0 -0 -0 -0 -0 -0 -0 -0 -0 -0 -0 -0 -0 -0 -0 -0 -0 -0 -0 -0 -0 -0 -0 -0 -0 -0 -0 -0 -0 -0 -0 -0 -0 -0
-0 -0 -0 -0 -0 -0 -0 -0 -0 -0 -0 -0 -0 -0 -0 -0 -0 -0 -0 -0 -0 -0 -0 -0 -0 -0 -0 -0 -0 -0 -0 -0 -0 -0 -0 -0 -0 -0 -0 -0 -0 -0 -0 -0
-0 -0 -0 -0 -0 -0 -0 -0 -0 -0 -0 -0 -0 -0 -0 -0 -0 -0 -0 -0 -0 -0 -0 -0 -0 -0 -0 -0 -0 -0 -0 -0 -0 -0 -0 -0 -0 -0 -0 -0 -0 -0 -0 -0
-0 -0 -0 -0 -0 -0 -0 -0 -0 -0 -0 -0 -0 -0 -0 -0 -0 -0 -0 -0 -0 -0 -0 -0 -0 -0 -0 -0 -0 -0 -0 -0 -0 -0 -0 -0 -0 -0 -0 -0 -0 -0 -0 -0
-0 -0 -0 -0 -0 -0 -0 -0 -0 -0 -0 -0 -0 -0 -0 -0 -0 -0 -0 -0 -0 -0 -0 -0 -0 -0 -0 -0 -0 -0 -0 -0 -0 -0 -0 -0 -0 -0 -0 -0 -0 -0 -0 -0
-0 -0 -0 -0 -0 -0 -0 -0 -0 -0 -0 -0 -0 -0 -0 -0 -0 -0 -0 -0 -0 -0 -0 -0 -0 -0 -0 -0 -0 -0 -0 -0 -0 -0 -0 -0 -0 -0 -0 -0 -0 -0 -0 -0
-0 -0 -0 -0 -0 -0 -0 -0 -0 -0 -0 -0 -0 -0 -0 -0 -0 -0 -0 -0 -0 -0 -0 -0 -0 -0 -0 -0 -0 -0 -0 -0 -0 -0 -0 -0 -0 -0 -0 -0 -0 -0 -0 -0
Wind_Speed
5 4 5 4 8 14 7 5 5 2 9 4 12 7 9 11 11 12 14 13 10 10 11 16 15 15 16 14 12 14 15 13 14 13 14 15 15 13 12 10 10 9 8 7
4 11 11 8 10 8 9 9 10 10 20 11 13 5 8 7 7 11 11 12 11 10 12 15 18 19 17 17 16 16 15 15 15 15 15 15 15 15 14 11 12 10 8 8
4 6 9 5 16 14 5 8 12 12 16 11 4 6 6 4 2 4 6 6 7 7 11 14 17 19 22 22 20 19 18 17 16 16 16 16 15 16 14 14 13 11 9 9
4 5 5 5 1 8 11 10 12 11 10 6 5 1 6 3 1 5 7 8 10 7 6 9 8 12 13 17 20 19 17 17 17 17 16 15 16 15 13 12 13 12 11 10
5 7 1 4 5 7 8 7 7 8 6 3 1 1 6 4 3 5 8 10 10 9 7 6 10 13 14 16 17 18 19 19 19 18 18 17 16 15 13 13 11 10 10 11
5 6 7 2 2 3 5 4 4 3 4 4 2 2 5 6 6 8 8 8 10 8 5 7 9 14 17 18 18 20 21 20 19 19 19 16 15 15 12 10 12 9 10 10
2 2 2 3 3 1 4 6 4 3 4 6 5 6 5 5 6 7 8 9 5 3 4 4 7 12 15 16 18 15 15 17 19 17 16 15 13 11 12 11 10 10 10 7
3 3 4 3 3 5 1 2 3 4 5 5 4 4 4 6 7 10 9 9 3 2 3 4 8 9 10 11 11 13 15 16 16 16 13 13 14 13 14 13 12 11 10 7
3 2 1 3 4 5 4 1 4 4 6 6 4 4 5 6 7 7 9 7 3 4 4 3 6 9 9 10 13 15 15 16 15 15 13 13 14 14 12 12 11 10 9 8
3 3 2 2 4 4 4 4 5 6 3 5 4 4 5 6 7 6 6 3 2 5 5 6 8 8 8 9 11 13 14 14 13 14 13 13 10 11 11 11 10 10 10 9
3 6 3 6 1 5 7 5 6 4 5 4 3 6 5 5 6 6 6 4 3 4 6 10 10 7 8 12 13 12 12 12 12 11 13 12 10 11 11 11 13 12 10 9
5 4 1 5 3 3 4 3 7 4 7 6 5 8 5 4 3 5 6 1 4 5 7 8 11 10 11 12 12 13 12 11 10 10 10 10 10 9 13 16 21 21 20 14
6 4 3 6 5 3 2 4 17 14 13 8 3 2 4 3 1 4 6 4 3 6 5 6 8 10 12 13 13 13 12 12 10 10 10 10 10 11 10 9 17 19 21 19
9 5 10 7 6 9 8 6 7 0 4 2 3 3 4 4 2 2 4 6 5 0 5 6 6 7 8 12 12 11 10 14 11 10 10 10 10 10 9 11 11 8 15 14
17 11 13 9 6 9 14 3 4 2 6 7 6 5 4 3 2 4 6 6 6 4 4 6 7 7 9 11 13 14 12 10 10 9 9 11 10 10 9 9 9 8 7 8
8 9 10 8 10 11 10 8 7 5 5 5 5 4 4 4 4 5 6 7 6 5 5 3 6 9 11 11 12 10 11 16 13 10 10 9 9 9 9 9 9 9 9 10
5 7 6 7 8 8 8 8 8 7 6 5 4 3 3 4 4 4 5 7 6 6 4 4 6 3 8 13 13 9 8 9 13 10 10 10 9 10 9 9 10 9 8 7
7 2 2 6 4 9 9 8 9 8 6 6 4 2 1 3 4 4 5 6 8 9 4 6 4 3 5 10 14 9 9 10 10 10 10 10 10 9 10 10 10 10 7 7
4 7 9 6 8 7 7 8 7 6 4 4 3 1 3 4 2 2 3 5 6 9 6 4 4 4 6 9 10 10 10 11 11 9 9 12 10 10 10 10 10 10 9 10
13 12 6 8 8 6 7 7 7 4 3 2 1 3 3 3 3 4 4 6 6 7 8 8 7 5 6 8 14 9 11 13 13 11 10 11 11 11 10 12 11 10 10 10
12 12 7 7 4 4 5 6 5 4 2 2 3 4 2 2 5 6 5 4 5 5 8 9 7 6 4 6 11 10 11 11 11 11 12 11 11 11 12 12 11 11 10 9
7 8 11 7 6 5 4 3 2 1 1 2 3 2 2 5 6 3 4 4 3 7 7 5 5 6 5 7 8 9 10 11 11 10 11 11 11 12 12 12 12 11 11 10
5 5 8 6 4 3 2 2 2 1 3 4 4 2 3 4 3 3 5 2 3 7 7 5 6 7 6 4 6 7 9 10 10 10 10 10 10 11 11 11 11 11 11 11
4 5 4 3 3 3 3 3 3 3 2 3 4 5 2 2 3 1 2 6 8 7 5 6 6 5 3 2 3 5 6 6 7 7 8 11 9 9 10 10 11 11 10 12
2 4 5 3 4 3 3 2 3 4 4 4 4 3 2 1 2 2 3 5 8 6 5 6 7 4 2 3 3 4 5 6 6 8 9 9 9 9 9 10 10 10 10 10
4 4 3 5 3 3 3 3 2 1 1 1 1 1 1 1 2 3 4 4 4 6 4 4 3 2 2 3 4 5 5 6 7 7 7 7 8 8 9 9 9 9 9 9
2 4 4 3 3 4 3 3 2 2 3 2 2 1 0 2 3 3 3 3 3 4 4 4 4 4 4 4 4 4 4 5 6 6 6 7 7 8 9 9 9 8 9 9
Wind_Direction
161 187 245 243 216 192 190 158 161 146 275 256 277 244 233 240 245 244 238 236 204 196 197 176 186 188 182 179 175 168 160 160 154 147 140 137 134 134 136 138 127 125 132 130
236 203 195 217 230 226 232 221 241 254 270 269 266 277 277 269 260 251 246 241 239 212 200 198 191 191 187 179 176 173 167 167 156 147 145 142 134 138 133 143 131 135 142 141
240 182 165 232 235 210 188 192 198 213 239 254 256 206 236 230 309 319 312 299 285 271 231 213 203 186 185 183 171 177 168 161 162 153 146 146 142 140 148 147 141 147 151 150
155 122 214 229 97 202 203 222 221 231 247 251 284 152 196 180 346 325 307 306 301 289 268 233 205 191 183 177 174 172 168 160 158 153 145 145 144 147 155 153 153 155 157 153
166 199 325 273 207 181 180 239 184 207 223 215 229 283 215 167 206 253 273 278 270 268 272 229 174 175 174 176 177 170 166 166 158 154 150 154 153 156 158 154 147 157 155 154
169 194 199 196 314 76 81 298 205 159 221 253 49 268 285 309 332 309 282 269 276 283 262 192 180 167 171 176 178 178 170 163 158 152 155 159 154 157 151 154 148 155 154 155
197 142 327 246 250 64 131 236 139 172 225 227 213 207 227 286 283 259 250 268 266 279 215 185 160 167 178 177 186 174 163 155 152 148 150 154 147 146 143 150 146 159 147 146
198 153 195 219 234 164 83 59 140 181 213 209 220 257 279 290 304 317 310 314 284 143 117 146 157 177 180 182 162 150 151 148 143 141 150 146 154 149 147 146 155 161 148 151
340 31 43 321 310 351 12 293 221 212 200 186 209 252 287 291 301 303 326 326 106 110 121 145 154 170 156 140 134 135 140 144 148 145 143 152 157 150 148 149 156 159 163 159
345 176 280 341 298 303 292 256 308 290 226 167 223 251 285 302 320 325 323 332 161 147 144 115 101 114 120 135 138 143 141 143 144 146 150 161 156 153 151 156 156 168 168 164
283 268 202 193 201 338 326 257 261 280 273 238 240 277 245 277 302 324 324 316 169 144 151 143 149 152 151 144 146 145 141 142 149 156 157 157 157 159 161 162 172 167 170 164
223 263 127 296 339 8 295 353 322 335 304 279 219 243 199 235 311 324 325 175 131 152 159 163 163 169 165 155 155 148 146 151 157 153 155 152 150 148 170 168 177 178 168 166
267 328 304 268 271 154 256 231 259 276 266 233 276 185 149 173 244 312 328 356 168 165 166 163 163 163 159 163 159 156 154 156 156 154 154 156 157 160 155 174 182 177 173 172
257 271 288 228 239 259 242 263 248 284 73 144 192 141 161 161 174 276 291 305 329 162 166 174 162 159 160 156 156 153 155 160 160 161 157 155 163 165 163 162 167 169 178 169
263 243 237 253 252 255 278 102 122 140 96 77 58 62 53 99 54 329 334 338 313 304 220 174 168 178 161 160 161 160 157 166 164 160 158 162 161 164 162 156 160 156 150 177
224 240 252 234 238 241 236 183 162 123 90 91 66 55 36 26 4 12 357 358 354 322 333 294 222 183 166 172 168 172 169 165 161 155 152 153 155 159 156 156 156 157 173 175
227 260 265 270 234 182 163 139 134 120 129 131 142 90 36 5 340 7 347 334 323 309 296 292 284 173 194 173 174 168 167 164 157 153 160 163 161 162 160 160 162 170 169 168
207 235 317 256 137 123 108 105 114 134 148 143 124 92 359 320 311 313 319 321 312 303 282 275 245 224 191 195 173 170 167 167 167 167 162 165 168 165 163 165 164 166 156 162
117 61 29 98 115 100 106 111 104 107 94 107 93 27 307 294 279 293 327 303 298 305 302 289 260 252 230 198 196 167 175 172 174 170 171 167 168 168 166 169 168 163 162 162
114 89 63 63 52 86 117 120 123 119 139 131 27 316 303 315 314 296 270 264 268 280 288 289 279 263 218 209 191 182 173 177 175 171 168 172 173 171 171 171 166 163 166 170
113 118 146 98 85 96 124 126 133 146 167 171 207 275 275 307 256 246 252 288 304 285 296 290 281 276 223 209 191 189 185 181 175 173 171 174 171 171 170 169 170 169 166 167
126 138 127 136 179 151 167 164 153 168 202 274 278 325 313 277 260 259 258 265 308 311 308 289 282 272 236 200 189 187 186 181 176 169 171 172 175 175 174 171 173 170 167 165
86 120 128 140 161 152 159 168 213 230 224 219 211 219 280 296 280 336 321 1 326 310 312 302 302 294 270 195 189 175 182 181 178 174 174 175 176 174 170 171 172 166 163 159
108 130 124 174 147 176 230 232 184 181 217 231 224 220 221 262 307 283 333 338 327 319 303 312 313 306 232 153 145 158 161 168 168 163 160 162 162 164 167 167 166 166 158 156
186 166 181 173 183 230 253 225 218 209 212 225 231 217 238 292 192 333 6 325 326 318 309 309 332 323 147 117 135 142 148 148 149 150 153 161 166 165 160 159 158 155 152 156
192 188 181 178 179 185 208 212 248 257 197 265 267 198 235 271 16 36 349 339 330 317 328 338 342 38 101 117 120 125 129 138 150 155 154 150 147 144 145 149 147 149 150 149
204 154 160 170 219 202 205 217 208 209 186 181 235 227 135 40 36 16 353 351 336 344 360 3 17 38 55 72 82 90 104 110 116 120 120 125 127 131 137 141 140 139 138 140